Content
SEND FEEDBACK

Daily
Averages
Monthly
Summary
United States of America

FORESTDALE, MASSACHUSETTS


Home > North America > United States > Massachusetts
Elevation: 131 feet     Latitude: 41 39N     Longitude: 070 31W

WEATHER
 
SELECT A DAY
Number of Records: 277,270;   Date Range: 1/1/95 - 10/24/14
 
SHARE

PRINT THIS DATA

[ ← Previous Day ]
WEATHER ALMANAC - FEBRUARY 13, 2013
[ Next Day → ]
[ °C ]   °F
Weather ElementAverageHighLow
Temperature32.8 °F39.2 °F (11:15 am)28.4 °F (12:35 am)
Dewpoint23.7 °F26.6 °F (9:55 pm)21.2 °F (4:15 am)
Humidity70.1 %93 % (9:55 pm)49 % (11:55 am)
Barometer29.81 in29.89 in (8:55 am)29.67 in (10:55 pm)
Wind Speed5.6 mph11.5 mph (2:35 pm)
Weather ElementAverage
Visibility10 mi
Wind DirectionSSW (199.6 °)

Weather ElementTotal
Precipitation---
Heating Degree Days31.2 (Base 65)
Averaged from 70 records on February 13, 2013
WEATHER CONDITIONS BREAKOUT
WIND DIRECTION BREAKOUT
WEATHER BY HOUR - FEBRUARY 13, 2013
[ °C ]   °F
Local TimeTemperatureDewpointHumidityBarometerVisibilityWind DirectionWind SpeedGust SpeedPrecipitationEventsConditions
12:35 AM28.4 °F23.0 °F80 %29.84 in10.0 miWNW (290°)8.1 mphClear
12:55 AM30.2 °F24.8 °F80 %29.85 in10.0 miWest (260°)8.1 mphClear
1:15 AM32.0 °F24.8 °F75 %29.85 in10.0 miWest (270°)9.2 mphClear
1:35 AM30.2 °F24.8 °F80 %29.85 in10.0 miWest (260°)5.8 mphClear
1:55 AM28.4 °F24.8 °F86 %29.85 in10.0 miWest (260°)6.9 mphClear
2:15 AM28.4 °F23.0 °F80 %29.85 in10.0 miWSW (250°)6.9 mphClear
2:35 AM28.4 °F23.0 °F80 %29.85 in10.0 miWest (260°)6.9 mphClear
2:55 AM28.4 °F23.0 °F80 %29.86 in10.0 miSW (220°)4.6 mphClear
3:15 AM28.4 °F23.0 °F80 %29.87 in10.0 miWSW (250°)8.1 mphClear
3:35 AM30.2 °F23.0 °F75 %29.87 in10.0 miWest (260°)8.1 mphClear
3:55 AM30.2 °F23.0 °F75 %29.87 in10.0 miWest (260°)6.9 mphClear
4:15 AM32.0 °F21.2 °F64 %29.87 in10.0 miWSW (250°)8.1 mphClear
4:35 AM32.0 °F23.0 °F69 %29.88 in10.0 miWest (260°)8.1 mphClear
4:55 AM30.2 °F23.0 °F75 %29.87 in10.0 miWest (270°)8.1 mphPartly Cloudy
5:15 AM28.4 °F21.2 °F74 %29.88 in10.0 miWest (270°)6.9 mphMostly Cloudy
5:35 AM28.4 °F23.0 °F80 %29.87 in10.0 miWNW (300°)5.8 mphOvercast
5:55 AM28.4 °F21.2 °F74 %29.87 in10.0 miWNW (300°)6.9 mphOvercast
6:15 AM28.4 °F23.0 °F80 %29.86 in10.0 miNW (310°)5.8 mphScattered Clouds
6:35 AM28.4 °F21.2 °F74 %29.87 in10.0 miNW (310°)4.6 mphClear
7:15 AM28.4 °F21.2 °F74 %29.87 in10.0 miWNW (300°)5.8 mphClear
7:35 AM28.4 °F23.0 °F80 %29.88 in10.0 miWest (280°)6.9 mphClear
7:55 AM32.0 °F23.0 °F69 %29.88 in10.0 miWest (270°)4.6 mphClear
8:15 AM32.0 °F23.0 °F69 %29.88 in10.0 miWNW (290°)6.9 mphClear
8:35 AM33.8 °F23.0 °F65 %29.88 in10.0 miWNW (290°)9.2 mphClear
8:55 AM35.6 °F23.0 °F60 %29.89 in10.0 miWNW (300°)10.4 mphClear
9:15 AM35.6 °F23.0 °F60 %29.89 in10.0 miWest (280°)9.2 mphClear
9:35 AM37.4 °F23.0 °F56 %29.88 in10.0 miWNW (300°)6.9 mphClear
9:55 AM37.4 °F23.0 °F56 %29.87 in10.0 miWNW (290°)5.8 mphClear
10:15 AM37.4 °F23.0 °F56 %29.86 in10.0 miWest (280°)9.2 mphClear
10:35 AM37.4 °F23.0 °F56 %29.85 in10.0 miWest (270°)5.8 mphClear
10:55 AM37.4 °F23.0 °F56 %29.84 in10.0 miSW (230°)4.6 mphClear
11:15 AM39.2 °F23.0 °F52 %29.85 in10.0 miSW (230°)5.8 mphClear
11:35 AM39.2 °F23.0 °F52 %29.84 in10.0 miWSW (240°)3.5 mphClear
11:55 AM39.2 °F21.2 °F49 %29.84 in10.0 miWSW (240°)4.6 mphClear
12:15 PM39.2 °F23.0 °F52 %29.84 in10.0 miWSW (240°)6.9 mphClear
12:35 PM39.2 °F23.0 °F52 %29.84 in10.0 miWSW (240°)8.1 mphClear
12:55 PM39.2 °F23.0 °F52 %29.83 in10.0 miSW (230°)8.1 mphClear
1:15 PM39.2 °F23.0 °F52 %29.82 in10.0 miWest (280°)6.9 mphClear
1:35 PM39.2 °F23.0 °F52 %29.82 in10.0 miSW (230°)8.1 mphClear
1:55 PM39.2 °F23.0 °F52 %29.81 in10.0 miWSW (250°)9.2 mphClear
2:15 PM39.2 °F23.0 °F52 %29.81 in10.0 miWSW (240°)6.9 mphClear
2:35 PM39.2 °F23.0 °F52 %29.81 in10.0 miSSW (210°)11.5 mphClear
2:55 PM39.2 °F23.0 °F52 %29.80 in10.0 miWSW (240°)8.1 mphClear
3:15 PM39.2 °F23.0 °F52 %29.78 in10.0 miWSW (250°)6.9 mphClear
3:35 PM37.4 °F23.0 °F56 %29.77 in10.0 miWSW (250°)8.1 mphClear
3:55 PM37.4 °F23.0 °F56 %29.77 in10.0 miWest (270°)5.8 mphClear
4:15 PM37.4 °F23.0 °F56 %29.76 in10.0 miWSW (250°)6.9 mphClear
4:35 PM35.6 °F23.0 °F60 %29.77 in10.0 miWSW (240°)8.1 mphClear
4:55 PM33.8 °F24.8 °F70 %29.77 in10.0 miWSW (240°)6.9 mphClear
5:15 PM32.0 °F24.8 °F75 %29.78 in10.0 miWest (260°)4.6 mphClear
5:35 PM32.0 °F24.8 °F75 %29.78 in10.0 miWSW (240°)4.6 mphMostly Cloudy
5:55 PM32.0 °F24.8 °F75 %29.77 in10.0 miCalmOvercast
6:15 PM32.0 °F24.8 °F75 %29.75 in10.0 miCalmOvercast
6:35 PM28.4 °F24.8 °F86 %29.75 in10.0 miEast (100°)3.5 mphOvercast
6:55 PM30.2 °F24.8 °F80 %29.75 in10.0 miENE (70°)3.5 mphOvercast
7:15 PM30.2 °F24.8 °F80 %29.75 in10.0 miCalmOvercast
7:35 PM28.4 °F24.8 °F86 %29.74 in10.0 miCalmMostly Cloudy
7:55 PM28.4 °F24.8 °F86 %29.74 in10.0 miSSE (160°)3.5 mphOvercast
8:15 PM28.4 °F24.8 °F86 %29.75 in10.0 miCalmOvercast
8:35 PM30.2 °F24.8 °F80 %29.73 in10.0 miCalmOvercast
8:55 PM30.2 °F24.8 °F80 %29.73 in10.0 miCalmOvercast
9:15 PM28.4 °F24.8 °F86 %29.73 in10.0 miCalmOvercast
9:35 PM28.4 °F24.8 °F86 %29.73 in10.0 miNE (50°)3.5 mphOvercast
9:55 PM28.4 °F26.6 °F93 %29.72 in10.0 miESE (120°)3.5 mphOvercast
10:15 PM30.2 °F26.6 °F86 %29.72 in10.0 miCalmOvercast
10:35 PM30.2 °F26.6 °F86 %29.70 in10.0 miNE (50°)5.8 mphOvercast
10:55 PM32.0 °F26.6 °F80 %29.67 in10.0 miNE (40°)4.6 mphOvercast
11:15 PM32.0 °F26.6 °F80 %29.68 in10.0 miCalmMostly Cloudy
11:35 PM32.0 °F26.6 °F80 %29.69 in10.0 miCalmOvercast
11:55 PM32.0 °F26.6 °F80 %29.70 in10.0 miNNE (20°)3.5 mphOvercast
Hourly data recorded from KFMH, located miles away from Forestdale, Massachusetts







STORIES FROM OUR PARTNERS